TimeMST,TemperatureF,Dew PointF,Humidity,Sea Level PressureIn,VisibilityMPH,Wind Direction,Wind SpeedMPH,Gust SpeedMPH,PrecipitationIn,Events,Conditions,WindDirDegrees,DateUTC
12:16 AM,21.0,18.0,88,30.19,1.8,NNE,5.8,-,0.00,Snow,Light Snow,30,2013-12-23 07:16:00
12:47 AM,19.4,17.6,93,30.20,1.5,NE,8.1,-,0.01,Snow,Light Snow,40,2013-12-23 07:47:00
12:53 AM,19.9,17.1,89,30.26,1.5,NNE,9.2,-,0.01,Snow,Light Snow,30,2013-12-23 07:53:00
1:16 AM,19.0,16.0,88,30.20,2.0,NE,6.9,-,0.01,Snow,Light Snow,40,2013-12-23 08:16:00
1:23 AM,18.0,16.0,92,30.20,3.0,NE,5.8,-,0.01,Snow,Light Snow,50,2013-12-23 08:23:00
1:53 AM,18.0,15.1,88,30.26,6.0,ENE,5.8,-,0.01,Snow,Light Snow,60,2013-12-23 08:53:00
1:56 AM,18.0,15.1,88,30.20,5.0,East,4.6,-,0.00,Snow,Light Snow,80,2013-12-23 08:56:00
1:58 AM,18.0,15.1,88,30.20,5.0,East,4.6,-,0.00,Snow,Light Snow,100,2013-12-23 08:58:00
2:53 AM,15.1,12.0,88,30.28,10.0,East,5.8,-,0.00,,Overcast,80,2013-12-23 09:53:00
3:53 AM,14.0,12.0,92,30.30,10.0,East,4.6,-,N/A,,Overcast,100,2013-12-23 10:53:00
4:53 AM,12.9,10.9,92,30.31,10.0,ESE,5.8,-,N/A,,Mostly Cloudy,120,2013-12-23 11:53:00
5:53 AM,10.0,8.1,92,30.35,10.0,SE,5.8,-,N/A,,Mostly Cloudy,140,2013-12-23 12:53:00
6:53 AM,8.1,5.0,87,30.35,10.0,South,9.2,-,N/A,,Scattered Clouds,170,2013-12-23 13:53:00
7:53 AM,14.0,10.0,84,30.35,10.0,South,8.1,-,N/A,,Scattered Clouds,180,2013-12-23 14:53:00
8:53 AM,18.0,14.0,84,30.35,10.0,SSE,8.1,-,N/A,,Scattered Clouds,160,2013-12-23 15:53:00
9:53 AM,26.1,17.1,69,30.34,10.0,SSE,8.1,-,N/A,,Partly Cloudy,160,2013-12-23 16:53:00
10:53 AM,30.0,19.9,66,30.30,10.0,SSE,8.1,-,N/A,,Partly Cloudy,160,2013-12-23 17:53:00
11:53 AM,36.0,21.9,57,30.25,10.0,SE,6.9,-,N/A,,Partly Cloudy,140,2013-12-23 18:53:00
12:53 PM,39.9,21.0,47,30.20,10.0,Calm,Calm,-,N/A,,Scattered Clouds,0,2013-12-23 19:53:00
1:53 PM,41.0,21.0,45,30.18,10.0,SSW,4.6,-,N/A,,Scattered Clouds,210,2013-12-23 20:53:00
2:53 PM,46.9,19.0,33,30.16,10.0,West,16.1,-,N/A,,Scattered Clouds,270,2013-12-23 21:53:00
3:53 PM,39.0,21.9,50,30.21,10.0,North,6.9,-,N/A,,Scattered Clouds,360,2013-12-23 22:53:00
4:53 PM,32.0,24.1,73,30.25,10.0,NE,4.6,-,N/A,,Scattered Clouds,50,2013-12-23 23:53:00
5:53 PM,28.0,21.9,78,30.27,10.0,SE,8.1,-,N/A,,Scattered Clouds,130,2013-12-24 00:53:00
6:53 PM,30.0,21.0,69,30.27,10.0,SW,8.1,-,N/A,,Partly Cloudy,220,2013-12-24 01:53:00
7:53 PM,35.1,19.9,54,30.20,10.0,South,11.5,-,N/A,,Partly Cloudy,180,2013-12-24 02:53:00
8:53 PM,32.0,19.9,61,30.19,10.0,SSW,11.5,-,N/A,,Mostly Cloudy,210,2013-12-24 03:53:00
9:53 PM,36.0,18.0,48,30.14,10.0,SSW,13.8,-,N/A,,Mostly Cloudy,210,2013-12-24 04:53:00
10:53 PM,35.1,19.0,52,30.12,10.0,SSW,15.0,-,N/A,,Mostly Cloudy,200,2013-12-24 05:53:00
11:53 PM,37.0,19.9,50,30.05,10.0,SW,15.0,-,N/A,,Scattered Clouds,220,2013-12-24 06:53:00